Blaine, Kentucky
Current Conditions -  °F | °C
As of 3:55 AM on Sunday 26 Oct 2014 (Local Time) from KSJS Reporting Station
Clear Clear  
Wind Chill: 60°   Ceiling: Unl
Heat Index: 60°   Visibility: 10mi
Dew Point: 55°   Wind: 6mph
Humidity: 83%   Direction: 270°W
Pressure: 29.94"   Gusts: NA
Location:  38.03°N, 82.84°W
Report Text: KSJS 260755Z AUTO 27005KT 10SM CLR 16/13 A2994 RMK AO2 T01560128
Loading
Personal Weather Stations






























Interactive Weather Map
Tropical Storm Tracking
New forecast layout! Learn more

10-Day Weather Forecast

Advertisements
Track Severe Weather on mobile